Regional Weather Roundup
Issued by NWS

Home | Current Version | Previous Version | Graphics & Text | Print | Product List | Glossary On
Versions: 1 2 3 4 5 6 7 8 9 10 11 12 13 14 15 16 17 18 19 20 21 22 23 24 25 26 27 28 29 30 31 32 33 34 35 36 37 38 39 40 41 42 43 44 45 46 47 48 49 50
000
ASUS43 KLMK 291810
RWRKY
KENTUCKY REGIONAL WEATHER ROUNDUP
NATIONAL WEATHER SERVICE LOUISVILLE KY
200 PM EDT FRI APR 29 2016

NOTE "FAIR" INDICATES FEW OR NO CLOUDS BELOW 12,000 FEET
WITH NO SIGNIFICANT WEATHER AND/OR OBSTRUCTIONS TO VISIBILITY.

KYZ001>023-026-027-061>063-070>075-291900-
WESTERN AND SOUTH CENTRAL KENTUCKY

CITY           SKY/WX    TMP DP  RH WIND       PRES   REMARKS
PADUCAH        CLOUDY    63  53  70 NE6       30.02F
HENDERSON      CLOUDY    64  48  55 NE6       30.03S
OWENSBORO      CLOUDY    67  51  56 NE5       30.04F
HOPKINSVILLE   PTSUNNY   69  58  68 NE8       30.02F
BOWLING GREEN  PTSUNNY   74  56  53 VRB6      30.02F
GLASGOW        CLOUDY    72  53  50 N3        30.03F
$$

KYZ024-025-028>034-038-045-046-053-291900-
NORTH CENTRAL KENTUCKY

CITY           SKY/WX    TMP DP  RH WIND       PRES   REMARKS
LOUISVILLE/SDF CLOUDY    69  46  43 CALM      30.03F
LOUISVILLE/LOU PTSUNNY   69  49  48 VRB3      30.05S
FORT KNOX      PTSUNNY   68  50  51 NW6       30.01F
$$

KYZ035>037-039>044-047>052-055>060-089>105-291900-
NORTHEAST KENTUCKY

CITY           SKY/WX    TMP DP  RH WIND       PRES   REMARKS
LEXINGTON      CLOUDY    70  50  49 W9        30.04S
COVINGTON      PTSUNNY   67  48  50 SW7       30.03F
FRANKFORT      CLOUDY    68  46  45 VRB6      30.03S
$$

KYZ054-064>069-076>088-106>120-291900-
SOUTHEAST KENTUCKY

CITY           SKY/WX    TMP DP  RH WIND       PRES   REMARKS
JACKSON        SUNNY     76  51  41 CALM      30.02S
LONDON         CLOUDY    76  48  37 NW3       30.03F
SOMERSET       CLOUDY    72  50  46 W5        30.05S
MIDDLESBORO    MOSUNNY   79  44  28 N10       30.03S
MONTICELLO     CLOUDY    75  55  49 VRB6      30.04F
$$





USA.gov is the U.S. government's official web portal to all federal, state and local government web resources and services.